Location: Burbank
(38.7788°N, 114.0429°W)
Time: 11:34:08
(UTC+00:00)

Vanguard 2 - Pass Details

Date: 13 May 2026
Orbit: 553 x 2894 km, 32.9° (Epoch: 11 June)

Event Time Altitude Azimuth Distance (km) Brightness Sun altitude
Rises 09:49:32 0° 236° (SW) 6,514 - -24.4°
Reaches altitude 10° 09:53:49 10° 232° (SW) 5,624 - -23.9°
Exits shadow 10:00:54 30° 222° (SW) 4,253 10.6 -23.1°
Maximum altitude 10:10:48 57° 160° (SSE) 3,120 10.3 -21.8°
Drops below altitude 10° 10:24:56 10° 88° (E) 4,781 12.2 -20.0°
Sets 10:28:13 0° 84° (E) 5,521 12.7 -19.5°
